SCP
0 0 0 0 0 0 0 0 0 0 0 0 0 0 0 0 0 0 0 0 0 0 0 0 0 0 0 0 0 0 0 0 0 0 0 0 0 0 0 0 0 0 0
0 0 0 0 0 0 0 0 0 0 0 0 0 0 0 0 0 0 0 0 0 0 0 0 0 0 0 0 0 0 0 0 0 0 0 0 0 0 0 0 0 0 0
0 0 0 0 0 0 0 0 0 0 0 0 0 0 0 0 0 0 0 0 0 0 0 0 0 0 0 0 0 0 0 0 0 0 0 0 0 0 0 0 0 0 0
0 0 0 0 0 0 0 0 0 0 0 0 0 -0 0 0 0 0 0 0 0 0 0 0 0 0 0 0 0 0 0 0 0 0 0 0 0 0 0 0 0 0 0
0 0 0 0 0 0 0 0 0 0 0 0 0 0 0 -0 0 0 0 0 0 0 0 0 0 0 0 0 0 0 0 0 0 0 0 0 0 0 0 0 0 0 0
0 0 0 0 0 0 0 0 0 0 0 0 0 0 0 0 0 0 0 0 0 0 0 0 0 0 0 0 0 0 0 0 0 0 0 0 0 0 0 0 0 0 0
0 0 0 0 0 0 0 0 0 0 0 0 0 0 0 0 0 0 0 0 -0 0 0 0 0 0 0 0 0 0 0 0 0 0 0 0 0 0 0 0 0 0 -0
0 0 0 0 0 0 0 0 0 0 0 0 0 0 0 0 0 0 0 0 -0 0 0 0 0 0 0 0 0 0 0 0 0 0 0 0 0 0 0 -0 -0 0 0
0 0 0 0 0 0 0 0 0 0 0 0 0 0 0 0 0 0 0 -0 0 0 0 0 0 0 0 0 0 0 0 0 0 0 0 0 0 0 0 0 0 0 0
0 0 0 0 0 0 0 0 0 0 0 0 0 0 0 0 0 0 0 0 0 0 0 0 0 -0 -0 -0 -0 0 0 0 0 -0 0 0 0 0 0 0 0 0 0
0 0 0 0 0 0 0 0 0 0 0 0 0 0 0 0 0 -0 0 0 0 0 -0 0 -0 -0 0 0 0 -0 -0 0 0 0 0 0 0 0 0 0 0 0 0
0 0 0 0 0 0 0 0 0 0 0 0 0 -0 0 -0 -0 0 0 0 -0 0 -0 0 0 0 -0 -0 0 0 0 0 0 0 0 -0 -0 0 0 0 0 0 0
0 0 0 0 0 0 0 0 -0 -0 -0 -0 -0 0 0 0 0 0 0 0 0 0 0 0 -0 -0 -0 -0 -0 -0 -0 -0 -0 0 0 0 -0 -0 0 0 0 0 0
-0 0 0 0 0 0 0 0 -0 -0 -0 -0 -0 -0 -0 -0 0 -0 -0 -0 -0 0 -0 -0 -0 -0 0 0 0 0 0 0 -0 -0 -0 -0 -0 0 0 0 0 0 0
-0 -0 0 0 0 0 0 -0 -0 -0 -0 -0 -0 -0 -0 -0 0 -0 -0 0 -0 -0 -0 -0 -0 -0 -0 -0 -0 0 0 -0 -0 -0 -0 -0 0 0 0 0 0 0 0
-0 -0 -0 -0 -0 0 0 -0 -0 -0 -0 -0 -0 -0 -0 -0 -0 -0 -0 -0 -0 -0 -0 -0 -0 -0 -0 -0 0 0 -0 0 -0 -0 0 -0 -0 0 0 0 0 0 0
-0 -0 -0 -0 -0 -0 0 0 -0 -0 -0 -0 -0 -0 -0 -0 -0 -0 -0 -0 -0 -0 -0 -0 -0 -0 -0 0 -0 -0 -0 -0 0 0 -0 -0 -0 0 0 0 0 0 0
0 -0 -0 -0 -0 -0 -0 0 -0 -0 -0 -0 -0 -0 -0 -0 -0 -0 -0 -0 -0 -0 -0 0 0 0 0 -0 -0 -0 -0 -0 0 0 0 0 0 0 0 0 0 0 0
0 0 0 -0 -0 -0 -0 -0 -0 -0 -0 -0 -0 -0 -0 -0 -0 0 0 0 0 0 0 -0 -0 0 0 -0 -0 0 0 0 0 0 0 0 0 0 0 0 0 0 0
0 0 0 0 0 -0 -0 -0 -0 -0 0 0 0 0 0 0 0 0 0 -0 -0 -0 -0 0 0 0 0 0 0 0 0 0 0 0 0 0 0 0 0 0 0 0 0
0 0 0 0 0 0 0 -0 -0 -0 0 0 0 0 0 0 0 -0 0 0 0 0 0 0 0 0 0 0 0 0 0 0 0 0 0 0 0 0 0 0 0 0 0
0 0 0 0 0 0 0 0 -0 -0 -0 -0 0 0 -0 0 -0 0 0 0 0 0 0 0 0 0 0 0 0 0 0 0 0 0 0 0 0 0 0 0 0 0 0
0 0 0 0 0 0 0 0 0 0 0 -0 0 0 0 -0 -0 0 0 0 0 0 0 0 0 0 0 0 0 0 0 0 0 0 0 0 0 0 0 0 0 0 0
0 0 0 0 0 0 0 0 0 0 0 0 0 0 0 0 0 0 0 0 0 0 0 0 0 0 0 0 0 0 0 0 0 0 0 0 0 0 0 0 0 0 0
0 0 0 0 0 0 0 0 0 0 0 0 0 0 0 0 0 0 0 0 0 0 0 0 0 0 0 0 0 0 0 0 0 0 0 0 0 0 0 0 0 0 0
0 0 0 0 0 0 0 0 0 0 0 0 0 0 0 0 0 0 0 0 0 0 0 0 0 0 0 0 0 0 0 0 0 0 0 0 0 0 0 0 0 0 0
Wind_Speed_500mb
18 28 35 40 43 45 57 56 73 66 59 56 57 51 44 35 26 24 31 31 52 39 65 51 59 53 65 64 48 38 33 34 32 34 31 28 21 20 18 21 20 18 11
21 28 34 40 43 48 56 56 71 61 57 56 53 47 38 30 23 24 23 27 52 44 59 45 64 61 62 60 47 45 49 39 40 42 32 25 20 20 13 14 8 11 12
19 27 34 39 40 49 60 59 67 57 53 51 44 35 25 19 11 20 25 37 52 47 51 53 64 62 58 55 45 56 48 50 48 38 30 20 14 26 17 17 18 20 17
18 21 30 35 38 44 52 57 63 55 44 39 37 29 28 18 16 12 15 37 48 49 56 54 56 54 57 54 61 45 46 47 42 44 32 21 27 24 18 25 26 24 20
12 14 24 29 32 40 48 59 57 49 41 33 30 27 21 24 23 10 15 29 37 43 44 47 49 47 51 58 48 47 52 45 44 46 44 29 28 26 43 37 33 27 23
7 9 18 23 29 35 41 55 57 50 37 29 27 25 30 29 22 10 17 26 37 40 32 31 44 40 54 49 48 56 48 44 48 32 32 20 21 26 23 43 36 33 28
7 5 15 21 26 32 39 48 58 52 36 33 27 25 29 32 22 27 24 32 35 42 37 34 31 45 43 44 52 53 44 42 41 22 17 14 19 23 25 46 40 33 28
9 1 10 17 22 27 34 42 55 52 38 21 27 30 31 19 36 40 36 38 34 32 35 26 31 40 37 50 47 61 47 35 23 32 42 37 36 34 32 29 30 32 21
14 5 4 10 17 24 31 36 47 52 38 28 36 34 40 44 38 43 45 51 49 40 31 27 23 44 57 58 50 48 47 47 49 36 39 37 32 24 20 16 19 19 22
21 13 3 5 13 19 24 24 34 51 61 53 47 48 51 52 49 44 42 45 50 50 50 59 70 69 62 62 62 63 56 51 52 41 36 31 26 21 18 16 14 14 14
30 19 11 5 11 15 18 22 22 37 47 55 62 72 81 80 80 84 86 86 85 81 76 71 67 73 67 62 60 60 54 50 41 36 28 30 25 20 17 15 13 12 11
35 25 17 11 12 14 15 20 30 32 41 53 51 61 60 70 73 73 75 73 76 75 77 72 69 66 62 59 57 56 49 44 39 35 27 28 24 19 18 17 16 15 13
41 34 27 19 17 19 16 11 21 31 30 34 37 47 53 54 60 64 65 65 67 67 66 63 62 58 55 52 50 45 43 39 37 32 27 28 24 21 20 18 17 15 13
50 43 35 28 24 25 21 16 17 22 25 24 27 31 36 43 44 47 51 50 49 51 52 54 55 53 50 47 45 40 39 37 35 31 28 28 25 22 20 18 17 17 16
58 53 47 39 32 33 33 27 22 24 23 27 23 27 33 35 41 44 46 46 46 48 48 48 48 46 45 42 37 36 36 34 32 31 29 27 24 22 20 19 18 16 12
68 63 55 48 42 40 40 37 31 30 31 32 34 35 35 34 35 38 40 41 42 41 41 42 41 39 40 38 36 33 33 32 30 29 28 27 25 21 20 18 16 14 14
76 73 68 60 51 45 46 46 42 39 39 40 38 37 37 37 35 32 33 35 36 36 35 37 36 36 38 37 34 32 30 28 27 26 26 24 22 19 18 17 15 13 13
80 77 74 68 58 50 50 48 49 47 46 45 43 40 38 38 37 36 31 29 30 30 31 33 32 32 33 33 31 28 25 23 22 21 21 19 18 16 12 10 10 11 14
81 76 77 71 67 61 57 58 56 54 53 52 48 45 42 38 37 36 35 34 32 30 29 29 29 28 28 28 27 23 20 18 18 15 14 13 11 8 9 11 10 11 14
83 77 77 78 76 70 65 66 64 63 61 58 53 48 44 41 39 39 38 36 33 32 31 29 25 22 21 23 24 22 19 15 13 11 9 6 5 6 7 9 11 15 18
75 76 74 85 84 78 72 71 72 72 63 59 56 53 50 46 43 40 38 35 34 33 30 30 31 31 27 22 19 18 17 18 15 12 10 5 1 5 8 12 16 20 23
69 76 75 83 88 85 79 75 77 71 67 66 64 61 56 52 49 47 46 45 41 37 35 32 28 25 24 24 23 22 19 17 15 12 9 7 5 7 10 14 20 24 28
59 69 72 79 89 91 87 79 70 73 74 74 71 67 62 59 55 54 52 50 47 44 41 37 34 31 30 28 26 24 22 20 17 16 16 15 12 10 14 19 24 29 32
48 62 71 76 88 94 92 79 70 72 79 79 77 73 71 67 63 60 57 55 53 51 47 45 41 38 36 33 32 31 29 27 24 22 21 19 15 15 18 21 24 27 29
44 56 69 76 83 90 93 87 78 74 81 81 80 80 76 73 69 67 65 63 58 51 47 46 43 44 42 35 34 35 32 29 28 27 26 24 23 24 23 25 28 30 33
44 53 66 76 78 85 93 92 86 80 80 84 85 85 81 78 75 72 69 67 62 58 56 54 52 50 45 43 42 39 37 35 36 35 34 30 28 29 29 30 30 30 33
Wind_Direction_500mb
309 316 325 334 339 345 340 348 344 345 343 343 330 323 314 307 278 256 257 221 197 188 227 209 206 194 199 209 210 200 198 191 167 168 178 175 182 197 203 228 244 255 261
302 319 333 340 349 347 348 349 351 347 351 343 337 325 317 304 281 245 232 209 187 190 210 206 187 196 195 190 191 211 185 183 175 178 178 177 187 193 209 239 210 160 140
298 321 336 344 351 356 358 348 353 353 358 345 352 353 341 335 315 247 213 188 184 192 198 202 198 203 202 201 205 193 181 181 186 187 172 170 179 175 143 139 137 131 128
291 322 339 345 356 3 2 357 358 356 3 355 11 19 18 16 20 171 184 181 189 192 197 208 206 206 206 206 193 188 189 188 186 184 188 181 178 162 139 126 119 118 115
290 330 345 347 2 6 6 5 2 7 6 0 15 7 22 3 358 199 187 179 190 192 198 203 208 204 205 202 209 208 195 196 190 192 197 200 163 159 158 140 127 121 113
265 330 347 354 11 12 11 10 14 12 13 13 32 16 49 42 41 110 171 166 181 186 191 191 208 205 207 204 209 197 194 198 174 166 180 189 212 207 173 150 139 132 108
229 331 352 4 16 18 17 12 14 18 17 5 49 48 69 56 66 125 151 157 176 190 182 192 196 210 207 210 210 193 200 157 148 143 165 156 135 154 164 148 143 134 126
206 313 357 9 24 25 26 20 23 25 33 36 68 75 82 81 107 118 114 143 166 149 165 183 188 190 216 213 202 157 139 135 133 135 135 141 126 121 127 138 145 137 133
198 199 359 19 41 41 41 29 39 44 53 66 89 90 97 108 116 114 111 136 132 133 144 164 175 166 144 131 121 120 123 130 130 136 126 129 119 123 121 137 154 170 158
197 195 168 46 66 60 57 44 55 53 68 75 90 100 102 105 108 106 122 122 118 119 116 119 115 111 108 117 119 117 118 131 122 122 124 131 127 125 131 137 143 152 166
195 194 174 138 101 88 77 62 80 62 83 84 92 95 99 99 100 104 105 105 107 107 109 111 111 110 116 118 119 119 123 126 127 127 127 121 120 128 127 119 114 111 116
191 191 184 163 137 119 104 106 91 79 86 88 99 99 102 103 108 105 107 108 110 113 111 114 114 115 116 118 119 121 125 124 124 120 124 116 112 111 106 102 99 96 95
192 189 189 176 164 148 149 137 98 97 97 96 94 98 102 104 105 109 111 113 115 119 120 122 121 120 119 117 114 117 118 119 116 115 114 107 104 102 95 83 69 60 55
196 193 190 186 178 169 174 177 140 125 115 108 102 104 100 102 101 102 108 110 111 114 117 118 117 116 117 116 116 119 116 115 112 110 105 100 95 87 78 69 58 50 41
198 198 194 191 186 182 181 188 172 155 146 151 148 136 126 122 123 124 124 123 126 123 121 118 117 116 116 114 116 113 111 108 111 109 101 95 85 75 67 59 54 50 46
205 202 198 195 193 192 187 190 189 171 155 150 149 147 140 135 132 128 127 128 127 125 122 121 119 121 119 115 112 110 110 111 104 99 94 85 80 73 65 55 49 47 35
212 206 202 200 196 196 194 193 190 183 172 168 167 162 153 146 142 141 140 138 133 130 132 128 125 123 116 112 111 108 104 101 95 88 82 76 71 62 52 41 31 25 17
219 213 205 201 199 194 198 195 195 190 185 179 176 172 167 160 155 152 151 148 144 143 140 132 127 121 114 111 109 107 107 104 102 93 84 72 56 46 40 30 19 11 9
230 222 211 203 198 196 196 198 197 196 193 189 185 180 175 171 169 166 163 163 158 155 148 139 134 131 129 126 121 123 123 118 111 108 94 78 67 54 29 19 1 355 350
230 221 213 205 200 198 198 200 201 201 199 196 191 187 183 181 181 178 178 175 173 168 159 154 149 149 150 147 146 147 145 137 122 110 99 90 61 30 2 356 355 347 341
227 221 214 207 203 200 200 202 204 206 203 200 197 195 193 191 190 190 190 189 185 181 180 176 175 174 171 169 162 162 168 173 170 165 164 154 34 347 343 339 334 341 335
219 218 213 210 206 204 204 205 209 207 204 202 203 201 199 199 198 198 199 198 198 195 194 194 193 192 191 192 190 191 198 203 202 198 200 212 240 275 315 329 332 332 330
220 218 216 212 210 207 208 209 212 207 204 205 206 206 205 204 206 207 208 208 207 205 205 206 205 207 208 208 208 211 212 221 227 229 225 230 248 286 314 330 335 333 329
223 221 219 216 213 211 212 212 214 209 208 208 207 209 210 209 209 210 213 217 216 214 213 214 214 214 217 218 220 223 222 223 230 238 246 254 269 292 304 309 318 320 320
227 225 226 222 219 215 215 213 213 212 211 212 210 211 214 215 216 216 217 219 221 224 226 228 226 226 226 227 228 229 231 233 236 241 250 262 271 280 289 297 309 318 321
232 227 226 227 225 221 219 216 214 214 215 215 214 214 216 218 220 222 221 221 222 224 225 225 228 230 230 229 233 234 236 239 244 245 252 258 267 276 284 290 298 306 310
Wind_Speed_850mb
18 28 35 40 43 45 57 56 73 66 59 56 57 51 44 35 26 24 31 31 52 39 65 51 59 53 65 64 48 38 33 34 32 34 31 28 21 20 18 21 20 18 11
21 28 34 40 43 48 56 56 71 61 57 56 53 47 38 30 23 24 23 27 52 44 59 45 64 61 62 60 47 45 49 39 40 42 32 25 20 20 13 14 8 11 12
19 27 34 39 40 49 60 59 67 57 53 51 44 35 25 19 11 20 25 37 52 47 51 53 64 62 58 55 45 56 48 50 48 38 30 20 14 26 17 17 18 20 17
18 21 30 35 38 44 52 57 63 55 44 39 37 29 28 18 16 12 15 37 48 49 56 54 56 54 57 54 61 45 46 47 42 44 32 21 27 24 18 25 26 24 20
12 14 24 29 32 40 48 59 57 49 41 33 30 27 21 24 23 10 15 29 37 43 44 47 49 47 51 58 48 47 52 45 44 46 44 29 28 26 43 37 33 27 23
7 9 18 23 29 35 41 55 57 50 37 29 27 25 30 29 22 10 17 26 37 40 32 31 44 40 54 49 48 56 48 44 48 32 32 20 21 26 23 43 36 33 28
7 5 15 21 26 32 39 48 58 52 36 33 27 25 29 32 22 27 24 32 35 42 37 34 31 45 43 44 52 53 44 42 41 22 17 14 19 23 25 46 40 33 28
9 1 10 17 22 27 34 42 55 52 38 21 27 30 31 19 36 40 36 38 34 32 35 26 31 40 37 50 47 61 47 35 23 32 42 37 36 34 32 29 30 32 21
14 5 4 10 17 24 31 36 47 52 38 28 36 34 40 44 38 43 45 51 49 40 31 27 23 44 57 58 50 48 47 47 49 36 39 37 32 24 20 16 19 19 22
21 13 3 5 13 19 24 24 34 51 61 53 47 48 51 52 49 44 42 45 50 50 50 59 70 69 62 62 62 63 56 51 52 41 36 31 26 21 18 16 14 14 14
30 19 11 5 11 15 18 22 22 37 47 55 62 72 81 80 80 84 86 86 85 81 76 71 67 73 67 62 60 60 54 50 41 36 28 30 25 20 17 15 13 12 11
35 25 17 11 12 14 15 20 30 32 41 53 51 61 60 70 73 73 75 73 76 75 77 72 69 66 62 59 57 56 49 44 39 35 27 28 24 19 18 17 16 15 13
41 34 27 19 17 19 16 11 21 31 30 34 37 47 53 54 60 64 65 65 67 67 66 63 62 58 55 52 50 45 43 39 37 32 27 28 24 21 20 18 17 15 13
50 43 35 28 24 25 21 16 17 22 25 24 27 31 36 43 44 47 51 50 49 51 52 54 55 53 50 47 45 40 39 37 35 31 28 28 25 22 20 18 17 17 16
58 53 47 39 32 33 33 27 22 24 23 27 23 27 33 35 41 44 46 46 46 48 48 48 48 46 45 42 37 36 36 34 32 31 29 27 24 22 20 19 18 16 12
68 63 55 48 42 40 40 37 31 30 31 32 34 35 35 34 35 38 40 41 42 41 41 42 41 39 40 38 36 33 33 32 30 29 28 27 25 21 20 18 16 14 14
76 73 68 60 51 45 46 46 42 39 39 40 38 37 37 37 35 32 33 35 36 36 35 37 36 36 38 37 34 32 30 28 27 26 26 24 22 19 18 17 15 13 13
80 77 74 68 58 50 50 48 49 47 46 45 43 40 38 38 37 36 31 29 30 30 31 33 32 32 33 33 31 28 25 23 22 21 21 19 18 16 12 10 10 11 14
81 76 77 71 67 61 57 58 56 54 53 52 48 45 42 38 37 36 35 34 32 30 29 29 29 28 28 28 27 23 20 18 18 15 14 13 11 8 9 11 10 11 14
83 77 77 78 76 70 65 66 64 63 61 58 53 48 44 41 39 39 38 36 33 32 31 29 25 22 21 23 24 22 19 15 13 11 9 6 5 6 7 9 11 15 18
75 76 74 85 84 78 72 71 72 72 63 59 56 53 50 46 43 40 38 35 34 33 30 30 31 31 27 22 19 18 17 18 15 12 10 5 1 5 8 12 16 20 23
69 76 75 83 88 85 79 75 77 71 67 66 64 61 56 52 49 47 46 45 41 37 35 32 28 25 24 24 23 22 19 17 15 12 9 7 5 7 10 14 20 24 28
59 69 72 79 89 91 87 79 70 73 74 74 71 67 62 59 55 54 52 50 47 44 41 37 34 31 30 28 26 24 22 20 17 16 16 15 12 10 14 19 24 29 32
48 62 71 76 88 94 92 79 70 72 79 79 77 73 71 67 63 60 57 55 53 51 47 45 41 38 36 33 32 31 29 27 24 22 21 19 15 15 18 21 24 27 29
44 56 69 76 83 90 93 87 78 74 81 81 80 80 76 73 69 67 65 63 58 51 47 46 43 44 42 35 34 35 32 29 28 27 26 24 23 24 23 25 28 30 33
44 53 66 76 78 85 93 92 86 80 80 84 85 85 81 78 75 72 69 67 62 58 56 54 52 50 45 43 42 39 37 35 36 35 34 30 28 29 29 30 30 30 33
Wind_Direction_850mb
309 316 325 334 339 345 340 348 344 345 343 343 330 323 314 307 278 256 257 221 197 188 227 209 206 194 199 209 210 200 198 191 167 168 178 175 182 197 203 228 244 255 261
302 319 333 340 349 347 348 349 351 347 351 343 337 325 317 304 281 245 232 209 187 190 210 206 187 196 195 190 191 211 185 183 175 178 178 177 187 193 209 239 210 160 140
298 321 336 344 351 356 358 348 353 353 358 345 352 353 341 335 315 247 213 188 184 192 198 202 198 203 202 201 205 193 181 181 186 187 172 170 179 175 143 139 137 131 128
291 322 339 345 356 3 2 357 358 356 3 355 11 19 18 16 20 171 184 181 189 192 197 208 206 206 206 206 193 188 189 188 186 184 188 181 178 162 139 126 119 118 115
290 330 345 347 2 6 6 5 2 7 6 0 15 7 22 3 358 199 187 179 190 192 198 203 208 204 205 202 209 208 195 196 190 192 197 200 163 159 158 140 127 121 113
265 330 347 354 11 12 11 10 14 12 13 13 32 16 49 42 41 110 171 166 181 186 191 191 208 205 207 204 209 197 194 198 174 166 180 189 212 207 173 150 139 132 108
229 331 352 4 16 18 17 12 14 18 17 5 49 48 69 56 66 125 151 157 176 190 182 192 196 210 207 210 210 193 200 157 148 143 165 156 135 154 164 148 143 134 126
206 313 357 9 24 25 26 20 23 25 33 36 68 75 82 81 107 118 114 143 166 149 165 183 188 190 216 213 202 157 139 135 133 135 135 141 126 121 127 138 145 137 133
198 199 359 19 41 41 41 29 39 44 53 66 89 90 97 108 116 114 111 136 132 133 144 164 175 166 144 131 121 120 123 130 130 136 126 129 119 123 121 137 154 170 158
197 195 168 46 66 60 57 44 55 53 68 75 90 100 102 105 108 106 122 122 118 119 116 119 115 111 108 117 119 117 118 131 122 122 124 131 127 125 131 137 143 152 166
195 194 174 138 101 88 77 62 80 62 83 84 92 95 99 99 100 104 105 105 107 107 109 111 111 110 116 118 119 119 123 126 127 127 127 121 120 128 127 119 114 111 116
191 191 184 163 137 119 104 106 91 79 86 88 99 99 102 103 108 105 107 108 110 113 111 114 114 115 116 118 119 121 125 124 124 120 124 116 112 111 106 102 99 96 95
192 189 189 176 164 148 149 137 98 97 97 96 94 98 102 104 105 109 111 113 115 119 120 122 121 120 119 117 114 117 118 119 116 115 114 107 104 102 95 83 69 60 55
196 193 190 186 178 169 174 177 140 125 115 108 102 104 100 102 101 102 108 110 111 114 117 118 117 116 117 116 116 119 116 115 112 110 105 100 95 87 78 69 58 50 41
198 198 194 191 186 182 181 188 172 155 146 151 148 136 126 122 123 124 124 123 126 123 121 118 117 116 116 114 116 113 111 108 111 109 101 95 85 75 67 59 54 50 46
205 202 198 195 193 192 187 190 189 171 155 150 149 147 140 135 132 128 127 128 127 125 122 121 119 121 119 115 112 110 110 111 104 99 94 85 80 73 65 55 49 47 35
212 206 202 200 196 196 194 193 190 183 172 168 167 162 153 146 142 141 140 138 133 130 132 128 125 123 116 112 111 108 104 101 95 88 82 76 71 62 52 41 31 25 17
219 213 205 201 199 194 198 195 195 190 185 179 176 172 167 160 155 152 151 148 144 143 140 132 127 121 114 111 109 107 107 104 102 93 84 72 56 46 40 30 19 11 9
230 222 211 203 198 196 196 198 197 196 193 189 185 180 175 171 169 166 163 163 158 155 148 139 134 131 129 126 121 123 123 118 111 108 94 78 67 54 29 19 1 355 350
230 221 213 205 200 198 198 200 201 201 199 196 191 187 183 181 181 178 178 175 173 168 159 154 149 149 150 147 146 147 145 137 122 110 99 90 61 30 2 356 355 347 341
227 221 214 207 203 200 200 202 204 206 203 200 197 195 193 191 190 190 190 189 185 181 180 176 175 174 171 169 162 162 168 173 170 165 164 154 34 347 343 339 334 341 335
219 218 213 210 206 204 204 205 209 207 204 202 203 201 199 199 198 198 199 198 198 195 194 194 193 192 191 192 190 191 198 203 202 198 200 212 240 275 315 329 332 332 330
220 218 216 212 210 207 208 209 212 207 204 205 206 206 205 204 206 207 208 208 207 205 205 206 205 207 208 208 208 211 212 221 227 229 225 230 248 286 314 330 335 333 329
223 221 219 216 213 211 212 212 214 209 208 208 207 209 210 209 209 210 213 217 216 214 213 214 214 214 217 218 220 223 222 223 230 238 246 254 269 292 304 309 318 320 320
227 225 226 222 219 215 215 213 213 212 211 212 210 211 214 215 216 216 217 219 221 224 226 228 226 226 226 227 228 229 231 233 236 241 250 262 271 280 289 297 309 318 321
232 227 226 227 225 221 219 216 214 214 215 215 214 214 216 218 220 222 221 221 222 224 225 225 228 230 230 229 233 234 236 239 244 245 252 258 267 276 284 290 298 306 310